[[{"header":{"parameterUnit":"m.s-1","parameterCategory":1,"la1":30.2991,"la2":30.254,"lo1":-89.0895,"lo2":-89.0444,"dy":0.0017,"dx":0.0017,"nx":28,"ny":28,"refTime":"2024-07-01T03:00:00:Z","depth":0,"parameterNumber":2,"parameterNumberName":"U-component_of_WINDS"},"data":[0,0,0,0,0,0,0,0,0,0,0,0,0,0,0,0,0,0,0,0,0,0,0,0,0,0,0,0,0,0,0,0,0,0,0,0,0,0,0,0,0,0,0,0,0,0,0,0,0,0,0,0,0,0,0,0,0,0,0.1238,0.1239,0,0.1299,0.13,0.13,0.1343,0.1344,0.1344,0.1344,0.1408,0.141,0.1411,0,0,0,0,0,0,0,0,0,0,0,0,0,0.1163,0.1164,0.1238,0.1239,0.124,0.1299,0.13,0.13,0.1343,0.1344,0.1344,0.1344,0.1408,0.141,0.1411,0,0,0,0,0,0,0,0,0,0,0,0,0,0.1207,0.1164,0.1238,0.1268,0.1272,0.1299,0.13,0.1301,0.1343,0.1344,0.1344,0.1345,0.1407,0.1409,0.1412,0.1414,0,0,0.1418,0.1419,0,0,0,0,0,0,0,0,0.1204,0.1209,0.1263,0.1266,0.127,0.1314,0.1297,0.1339,0.1343,0.1316,0.1344,0.1345,0.1377,0.1381,0.1392,0.1417,0.142,0.1418,0.1419,0.142,0.1421,0,0,0,0,0,0,0,0.1201,0.1207,0.1262,0.1264,0.1268,0.128,0.1286,0.1305,0.1343,0.1318,0.1322,0.1328,0.1379,0.139,0.1394,0.1421,0.1418,0.142,0.1421,0.1422,0.1453,0.1453,0,0,0,0,0,0,0.1193,0.1204,0.126,0.1264,0.1238,0.1281,0.1288,0.1299,0.1343,0.135,0.1328,0.133,0.1386,0.1391,0.1396,0.1402,0.142,0.1422,0.1423,0.1453,0.1453,0.1453,0,0,0,0,0,0,0.1191,0.1197,0.1258,0.1235,0.1244,0.1281,0.1294,0.13,0.1311,0.135,0.1357,0.1331,0.1386,0.1393,0.1409,0.1405,0.1423,0.1425,0.1454,0.1453,0.1453,0.1415,0,0,0,0,0,0,0.1189,0.1197,0.1197,0.1235,0.1245,0.1269,0.1293,0.1301,0.1314,0.1318,0.1355,0.1362,0.1387,0.1406,0.1411,0.1408,0.1427,0.1455,0.1454,0.1453,0.1417,0.1413,0.141,0,0,0,0,0,0.1186,0.1184,0.1197,0.1203,0.1246,0.1269,0.1275,0.1303,0.1314,0.1315,0.134,0.1361,0.1405,0.1407,0.1414,0.1411,0.1455,0.1454,0.1453,0.1418,0.1414,0.141,0,0,0,0,0,0,0.1146,0.119,0.1204,0.1215,0.1238,0.1276,0.1279,0.1298,0.1319,0.1321,0.1357,0.1365,0.1378,0.1396,0.1398,0.1417,0.1433,0.1433,0.1404,0.14,0.1397,0.1392,0.1428,0,0,0,0,0,0.1138,0.1152,0.119,0.1196,0.1206,0.124,0.1252,0.1272,0.1297,0.1307,0.1334,0.1358,0.1378,0.139,0.141,0.142,0.1429,0.1422,0.1418,0.1415,0.1415,0.1422,0.1419,0.1449,0.1449,0.1449,0,0,0.1122,0.1148,0.1155,0.1188,0.1208,0.1223,0.1248,0.1263,0.1274,0.131,0.1327,0.1347,0.1377,0.139,0.1397,0.1406,0.1409,0.1414,0.1411,0.1413,0.1421,0.1418,0.1416,0.1449,0.1449,0.1449,0,0,0.1101,0.1121,0.1128,0.1148,0.1179,0.1202,0.1203,0.1239,0.1254,0.1271,0.1299,0.1314,0.1346,0.1367,0.1382,0.137,0.139,0.1376,0.1358,0.1364,0.1362,0.136,0.1356,0.1354,0.1375,0.1375,0.1375,0,0.1077,0.1099,0.113,0.1143,0.1157,0.119,0.1198,0.1216,0.1252,0.1261,0.1271,0.1313,0.1336,0.1355,0.1352,0.1363,0.1366,0.1371,0.136,0.1358,0.1357,0.1353,0.1352,0.1373,0.1373,0.1374,0.1374,0,0.107,0.1085,0.1087,0.112,0.1135,0.1145,0.1178,0.119,0.1209,0.1231,0.1249,0.1278,0.1305,0.1311,0.133,0.1333,0.1337,0.1353,0.1369,0.1351,0.1349,0.1348,0.137,0.1371,0.1372,0.1372,0,0,0.1023,0.1073,0.1074,0.1089,0.1126,0.1139,0.1151,0.1177,0.1186,0.1211,0.1222,0.125,0.1265,0.1282,0.1304,0.131,0.1299,0.1325,0.1326,0.1319,0.1304,0.1292,0.129,0.1313,0.1312,0.1312,0.1302,0,0.1007,0.103,0.1059,0.1072,0.1087,0.112,0.1131,0.1155,0.1176,0.1193,0.1218,0.1237,0.1254,0.1265,0.1272,0.1298,0.1296,0.13,0.1325,0.1325,0.1315,0.1289,0.1276,0.1264,0.1301,0.1301,0.1301,0,0.0991,0.1013,0.1028,0.1064,0.1071,0.1081,0.1107,0.1122,0.1151,0.1167,0.1186,0.1209,0.1226,0.1241,0.1264,0.1266,0.1278,0.1293,0.1293,0.1296,0.1311,0.1291,0.1261,0.1259,0.13,0.13,0.13,0,0.0956,0.0989,0.1003,0.1015,0.1057,0.1063,0.1081,0.1111,0.1124,0.1148,0.1158,0.1183,0.1197,0.1217,0.1248,0.1255,0.1268,0.1285,0.1282,0.1281,0.1282,0.1282,0.1254,0.1291,0.1291,0.1291,0.1291,0,0.0935,0.0943,0.0987,0.0995,0.1006,0.1039,0.1049,0.107,0.1096,0.111,0.114,0.1152,0.1192,0.121,0.1234,0.125,0.1256,0.127,0.1276,0.1267,0.1265,0.1275,0.1276,0.129,0.129,0.129,0.1291,0,0.0897,0.0927,0.0944,0.0982,0.0992,0.0998,0.1032,0.1042,0.1066,0.1083,0.1089,0.1126,0.1149,0.1182,0.1214,0.1231,0.1243,0.1253,0.1233,0.1237,0.1231,0.1231,0.1208,0.1207,0.1245,0.1244,0.1244,0,0.0881,0.0888,0.0927,0.0938,0.0955,0.0973,0.0987,0.1021,0.1035,0.1069,0.1075,0.1099,0.1121,0.1156,0.1186,0.1212,0.1223,0.1213,0.1227,0.1218,0.1223,0.1222,0.1223,0.121,0.1209,0.1209,0.1208,0,0.085,0.0865,0.0884,0.0908,0.0924,0.0946,0.0968,0.0976,0.1015,0.103,0.1052,0.1069,0.1102,0.1127,0.1157,0.1177,0.1199,0.1204,0.1205,0.1195,0.1183,0.1189,0.1224,0.1204,0.1205,0.1205,0.1205,0.1205,0.0823,0.083,0.0859,0.088,0.0901,0.0921,0.0933,0.0958,0.0977,0.1006,0.1026,0.1048,0.1078,0.112,0.114,0.1158,0.1168,0.1168,0.1168,0.1168,0.1165,0.118,0.1164,0.1164,0.1164,0.1164,0.1165,0,0.0793,0.0813,0.0832,0.0863,0.0879,0.0899,0.0925,0.0938,0.0957,0.0982,0.1003,0.103,0.1054,0.1087,0.1115,0.1123,0.1134,0.1129,0.1129,0.1133,0.1155,0.1152,0.112,0.112,0.112,0.112,0.112,0.112,0.0779,0.0794,0.0812,0.0837,0.0858,0.0879,0.0893,0.0913,0.0934,0.0962,0.0982,0.1003,0.1033,0.1062,0.1086,0.1095,0.1104,0.1096,0.1108,0.1127,0.1132,0.1135,0.1132,0.1097,0.1097,0.1085,0.1085,0.1085]},{"header":{"parameterUnit":"m.s-1","parameterCategory":1,"la1":30.2991,"la2":30.254,"lo1":-89.0895,"lo2":-89.0444,"dy":0.0017,"dx":0.0017,"nx":28,"ny":28,"refTime":"2024-07-01T03:00:00:Z","depth":0,"parameterNumber":3,"parameterNumberName":"V-component_of_WINDS"},"data":[0,0,0,0,0,0,0,0,0,0,0,0,0,0,0,0,0,0,0,0,0,0,0,0,0,0,0,0,0,0,0,0,0,0,0,0,0,0,0,0,0,0,0,0,0,0,0,0,0,0,0,0,0,0,0,0,0,0,-0.3986,-0.3987,0,-0.4078,-0.4079,-0.408,-0.4109,-0.4109,-0.4108,-0.4108,-0.4205,-0.4207,-0.421,0,0,0,0,0,0,0,0,0,0,0,0,0,-0.3837,-0.384,-0.3986,-0.3987,-0.3988,-0.4078,-0.4079,-0.408,-0.4109,-0.4109,-0.4108,-0.4108,-0.4204,-0.4207,-0.4211,0,0,0,0,0,0,0,0,0,0,0,0,0,-0.3913,-0.384,-0.3985,-0.4013,-0.4017,-0.4077,-0.4079,-0.4081,-0.4109,-0.4109,-0.4108,-0.4107,-0.4202,-0.4207,-0.4211,-0.4252,0,0,-0.4225,-0.4227,0,0,0,0,0,0,0,0,-0.3908,-0.3918,-0.4008,-0.4011,-0.4015,-0.4081,-0.4062,-0.4138,-0.411,-0.4074,-0.4108,-0.4107,-0.4164,-0.4172,-0.4191,-0.4257,-0.4261,-0.4225,-0.4228,-0.423,-0.4231,0,0,0,0,0,0,0,-0.3903,-0.3914,-0.4022,-0.4009,-0.4014,-0.4022,-0.4032,-0.4077,-0.4122,-0.4077,-0.408,-0.409,-0.4166,-0.4186,-0.4193,-0.4262,-0.4225,-0.4229,-0.4232,-0.4234,-0.4366,-0.4367,0,0,0,0,0,0,-0.3893,-0.391,-0.4019,-0.4025,-0.3959,-0.4025,-0.4036,-0.4061,-0.4121,-0.413,-0.409,-0.4091,-0.4179,-0.4188,-0.4197,-0.4249,-0.423,-0.4234,-0.4237,-0.4366,-0.4367,-0.4367,0,0,0,0,0,0,-0.389,-0.3902,-0.4016,-0.3968,-0.3983,-0.4028,-0.4056,-0.4063,-0.4083,-0.4131,-0.414,-0.4102,-0.4179,-0.419,-0.4238,-0.4253,-0.4236,-0.424,-0.4365,-0.4366,-0.4367,-0.4353,0,0,0,0,0,0,-0.3885,-0.3901,-0.3916,-0.3968,-0.3985,-0.4055,-0.4057,-0.4065,-0.409,-0.4092,-0.4145,-0.4153,-0.4179,-0.4231,-0.4242,-0.4258,-0.4244,-0.4363,-0.4365,-0.4367,-0.4352,-0.4354,-0.4355,0,0,0,0,0,-0.388,-0.3909,-0.3917,-0.393,-0.4006,-0.4055,-0.4065,-0.4094,-0.4091,-0.4108,-0.4139,-0.4151,-0.4249,-0.4236,-0.4249,-0.4266,-0.4363,-0.4365,-0.4366,-0.4352,-0.4353,-0.4355,0,0,0,0,0,0,-0.3859,-0.3917,-0.3926,-0.3973,-0.4009,-0.406,-0.4082,-0.4095,-0.4133,-0.4133,-0.4168,-0.4179,-0.4225,-0.425,-0.4234,-0.4309,-0.4306,-0.4311,-0.4291,-0.4293,-0.4294,-0.4287,-0.4247,0,0,0,0,0,-0.386,-0.3895,-0.3943,-0.398,-0.3998,-0.4036,-0.4059,-0.4078,-0.4117,-0.4133,-0.4167,-0.4206,-0.4245,-0.427,-0.4309,-0.4356,-0.4368,-0.4374,-0.4375,-0.4376,-0.438,-0.4407,-0.4411,-0.4374,-0.4374,-0.4374,0,0,-0.3862,-0.3898,-0.3918,-0.3977,-0.4007,-0.4043,-0.4049,-0.4087,-0.4115,-0.4139,-0.4186,-0.4212,-0.4257,-0.4305,-0.4327,-0.4328,-0.4393,-0.4379,-0.4379,-0.4382,-0.4409,-0.4413,-0.4416,-0.4375,-0.4375,-0.4375,0,0,-0.3885,-0.3915,-0.3949,-0.3979,-0.4024,-0.405,-0.4058,-0.4107,-0.4125,-0.4173,-0.4192,-0.4225,-0.4292,-0.4323,-0.4348,-0.4382,-0.4395,-0.4393,-0.44,-0.4426,-0.4429,-0.4431,-0.4444,-0.4448,-0.4397,-0.4397,-0.4397,0,-0.3883,-0.3937,-0.3965,-0.4002,-0.4028,-0.405,-0.4086,-0.4114,-0.4169,-0.4187,-0.4186,-0.427,-0.4302,-0.4357,-0.4365,-0.4384,-0.4395,-0.4388,-0.4426,-0.4429,-0.4432,-0.4444,-0.4449,-0.4396,-0.4396,-0.4396,-0.4396,0,-0.3932,-0.3969,-0.3992,-0.4044,-0.4072,-0.4108,-0.4142,-0.4167,-0.4184,-0.4209,-0.4257,-0.4296,-0.4343,-0.4358,-0.4374,-0.4415,-0.4414,-0.4419,-0.4417,-0.4434,-0.4447,-0.4452,-0.4396,-0.4396,-0.4396,-0.4396,0,0,-0.3946,-0.4012,-0.402,-0.4044,-0.4095,-0.4125,-0.4162,-0.4207,-0.4228,-0.4266,-0.4298,-0.4354,-0.4359,-0.4386,-0.4407,-0.4429,-0.4454,-0.4432,-0.4433,-0.4435,-0.4502,-0.4499,-0.4504,-0.4463,-0.4464,-0.4464,-0.4499,0,-0.3976,-0.4042,-0.4068,-0.4122,-0.4157,-0.4179,-0.4211,-0.4246,-0.4271,-0.4305,-0.4333,-0.4372,-0.4375,-0.4392,-0.4415,-0.4446,-0.4468,-0.4444,-0.4494,-0.4495,-0.4483,-0.451,-0.4507,-0.4537,-0.4504,-0.4504,-0.4505,0,-0.402,-0.4056,-0.4113,-0.416,-0.4176,-0.4204,-0.4248,-0.428,-0.432,-0.4337,-0.4367,-0.4386,-0.4426,-0.4421,-0.4477,-0.446,-0.4482,-0.45,-0.4502,-0.4508,-0.4502,-0.4518,-0.4548,-0.4552,-0.4513,-0.4512,-0.4512,0,-0.4024,-0.4088,-0.4131,-0.4151,-0.4206,-0.4225,-0.4249,-0.4289,-0.4315,-0.4353,-0.437,-0.4412,-0.4436,-0.4468,-0.4498,-0.4491,-0.4552,-0.4549,-0.4567,-0.4566,-0.458,-0.4579,-0.4614,-0.4592,-0.4592,-0.4592,-0.4592,0,-0.4056,-0.409,-0.4134,-0.416,-0.4199,-0.4229,-0.4267,-0.4293,-0.4328,-0.436,-0.4382,-0.4411,-0.4449,-0.4483,-0.4507,-0.455,-0.456,-0.4575,-0.4582,-0.4574,-0.4572,-0.459,-0.4588,-0.4593,-0.4593,-0.4593,-0.4593,0,-0.4068,-0.4099,-0.4146,-0.4194,-0.4207,-0.4234,-0.4275,-0.4302,-0.4327,-0.4368,-0.4379,-0.4419,-0.4461,-0.4494,-0.4549,-0.4565,-0.461,-0.4617,-0.4597,-0.46,-0.4616,-0.4615,-0.4665,-0.4673,-0.4645,-0.4645,-0.4646,0,-0.4086,-0.4113,-0.4163,-0.4186,-0.4209,-0.4246,-0.4271,-0.4302,-0.4328,-0.4376,-0.4397,-0.444,-0.4476,-0.4542,-0.4577,-0.4619,-0.4627,-0.4641,-0.4633,-0.4625,-0.4628,-0.4626,-0.4629,-0.4643,-0.4643,-0.4643,-0.4643,0,-0.4116,-0.4129,-0.4165,-0.4206,-0.4235,-0.4269,-0.4304,-0.4321,-0.4358,-0.4386,-0.4429,-0.4457,-0.4513,-0.4556,-0.4601,-0.4627,-0.4641,-0.4645,-0.4652,-0.4645,-0.4632,-0.464,-0.46,-0.4644,-0.4644,-0.4644,-0.4644,-0.4644,-0.4132,-0.4157,-0.4196,-0.4235,-0.4264,-0.4295,-0.4322,-0.4351,-0.4387,-0.4434,-0.445,-0.4494,-0.4534,-0.4596,-0.4622,-0.4657,-0.4658,-0.4667,-0.467,-0.4672,-0.4671,-0.4626,-0.4665,-0.4666,-0.4666,-0.4666,-0.4666,0,-0.4163,-0.4189,-0.4224,-0.4271,-0.4302,-0.4312,-0.435,-0.4376,-0.4414,-0.4449,-0.4484,-0.4533,-0.4575,-0.4612,-0.4655,-0.4676,-0.4684,-0.4687,-0.4686,-0.4692,-0.4668,-0.4658,-0.468,-0.468,-0.468,-0.468,-0.468,-0.468,-0.4183,-0.4225,-0.4243,-0.43,-0.4326,-0.4369,-0.439,-0.4419,-0.4448,-0.4501,-0.4535,-0.4559,-0.4596,-0.4642,-0.468,-0.469,-0.4705,-0.4706,-0.4718,-0.4695,-0.4694,-0.4692,-0.4683,-0.4709,-0.4709,-0.4739,-0.474,-0.474]}]]